Wind_Speed
39 39 37 36 37 37 37 37 36 36 38 38 37 34 33 35 35 34 34 34 34 33 33 32 32 31 31 31 31 31 31 31 31 32 32 32 33 33 33 33 33 33 34 34
41 39 36 37 38 38 37 36 36 37 39 40 38 35 33 35 35 35 35 35 35 34 34 33 33 32 32 32 32 32 32 32 32 32 33 33 33 33 33 34 34 34 35 35
40 38 38 39 38 38 37 36 36 38 40 41 40 36 33 35 36 36 36 35 35 35 35 35 33 33 32 32 32 32 33 33 33 33 33 33 33 34 34 34 34 35 36 36
42 40 39 39 39 38 37 36 37 38 39 40 39 38 32 33 35 36 35 35 35 35 35 35 34 34 34 33 33 33 33 33 33 33 33 33 34 34 35 35 35 36 36 37
43 40 38 38 37 37 36 36 37 37 38 39 37 38 32 31 33 34 35 35 35 35 35 35 35 35 34 34 33 33 33 33 33 33 33 33 34 34 35 35 36 36 37 38
44 41 40 38 37 37 36 36 37 37 38 38 35 37 35 31 32 33 35 35 35 35 36 36 36 36 35 34 33 33 33 33 33 33 33 34 34 34 35 36 37 37 38 39
44 41 39 37 37 36 36 35 37 38 38 39 36 36 35 32 32 32 33 34 35 35 36 36 35 35 34 33 33 33 33 33 33 33 33 34 34 35 35 36 37 38 39 40
41 40 38 36 35 35 35 36 36 37 38 38 36 35 32 31 31 32 32 33 33 34 34 35 34 34 33 32 32 32 31 32 32 32 33 34 35 35 35 36 38 39 40 42
39 39 37 36 35 36 37 36 35 38 39 38 37 34 31 30 31 31 32 32 32 33 33 33 32 32 32 31 31 31 31 31 32 32 33 34 34 35 36 37 39 40 41 43
38 39 37 36 37 37 37 36 36 37 38 38 37 33 30 29 29 30 31 31 31 32 31 31 31 31 30 30 31 31 31 31 32 32 32 33 34 35 37 39 40 42 43 45
39 39 38 38 38 36 37 37 37 37 38 37 36 33 29 28 29 29 30 30 30 30 29 29 29 29 30 30 30 30 30 30 31 32 33 34 35 37 39 40 42 44 45 46
38 39 39 38 38 37 38 37 36 37 36 36 36 34 29 28 29 29 29 30 30 29 29 29 29 29 30 29 29 30 30 31 32 33 34 35 36 38 40 42 43 44 45 46
38 41 41 40 39 38 37 35 35 35 36 36 35 32 29 28 29 29 29 29 29 29 29 28 29 29 29 29 29 30 31 32 33 34 35 36 37 39 41 42 43 45 46 46
39 41 41 38 36 34 34 34 34 36 37 35 33 30 29 29 29 29 29 28 28 28 28 28 28 28 29 30 31 32 33 33 34 35 36 37 38 40 41 43 44 45 46 47
40 40 39 37 36 35 34 34 34 35 34 33 30 30 28 28 29 29 28 28 28 28 27 28 28 29 30 31 32 32 33 34 35 36 37 38 39 41 43 44 45 46 46 47
39 39 38 37 36 35 35 34 33 33 32 31 31 29 27 29 29 29 29 28 28 28 28 28 29 30 31 32 32 33 33 34 35 36 38 39 41 42 43 44 45 46 47 48
38 37 37 36 35 37 37 32 32 31 30 30 30 26 27 28 29 28 28 28 27 27 28 28 29 30 31 31 32 33 34 36 36 37 39 40 41 42 43 44 45 46 47 48
40 39 39 38 37 39 32 29 30 29 29 29 29 27 28 28 28 28 28 28 28 28 29 29 29 30 31 32 32 34 35 36 37 38 39 40 41 42 43 44 45 46 47 48
42 41 40 39 39 38 33 28 28 29 28 28 28 27 27 28 27 27 27 27 27 28 29 29 30 30 31 32 33 34 35 37 37 38 39 40 41 42 43 44 45 46 47 48
44 42 41 40 39 37 31 29 29 30 29 27 27 27 27 27 27 25 27 27 27 28 29 29 30 31 32 33 33 35 36 36 37 38 39 40 41 42 43 44 45 47 48 49
43 42 40 38 38 36 32 29 30 30 27 26 27 26 27 26 26 26 27 27 28 28 29 29 30 30 31 33 34 35 36 36 38 38 39 40 41 42 44 45 46 48 49 51
41 40 39 38 38 34 31 31 30 29 28 27 27 26 26 26 26 26 27 27 27 28 28 29 29 30 32 33 34 35 36 37 38 39 40 41 42 43 44 45 47 49 51 53
40 39 37 36 33 31 31 30 30 29 28 27 27 26 26 26 26 26 27 27 28 28 28 29 30 32 33 34 35 36 37 38 38 39 40 41 42 43 44 46 48 51 53 56
37 37 37 36 34 32 31 30 30 30 29 28 27 27 26 26 26 27 27 28 28 29 30 31 32 33 34 35 36 37 37 38 38 39 40 41 42 44 46 49 51 54 57 59
35 36 37 36 33 33 32 31 31 31 29 28 28 27 27 27 27 27 28 28 29 30 31 32 33 34 35 36 36 37 37 38 39 40 41 42 44 46 49 51 54 57 59 63
36 35 35 33 32 33 32 32 32 31 30 29 29 28 28 27 27 28 29 29 30 31 32 33 34 34 35 36 36 37 38 38 39 41 43 45 47 49 52 55 57 60 63 65
Wind_Direction
236 237 239 240 241 242 243 245 246 248 250 251 252 252 254 259 260 261 262 264 266 267 268 270 272 275 278 279 280 280 280 282 284 285 285 285 284 285 285 284 285 286 287 288
237 238 238 240 242 243 244 246 248 249 252 253 253 253 254 258 262 262 263 264 266 268 270 272 272 275 277 278 278 279 279 281 282 283 284 284 284 284 284 284 285 287 288 289
238 237 237 239 241 244 245 247 249 251 253 255 256 255 256 259 262 263 263 265 267 269 270 272 273 275 276 277 277 278 278 279 280 282 283 283 284 283 284 284 286 287 288 289
236 236 237 240 242 245 247 248 250 252 254 256 258 259 255 258 261 263 264 266 267 269 270 271 273 275 276 276 277 277 278 278 279 281 281 282 283 283 284 285 287 287 288 290
237 238 239 241 243 245 247 248 251 253 255 257 259 263 258 257 259 262 265 266 268 269 270 272 274 275 275 275 275 276 277 277 278 280 281 282 283 283 284 285 287 288 289 290
235 235 237 239 241 244 247 250 252 254 256 258 259 263 263 261 260 262 264 265 267 268 270 272 273 274 274 274 275 275 276 277 278 280 280 281 282 283 284 285 286 288 289 290
236 237 238 240 241 244 247 250 253 256 257 260 261 263 265 266 264 264 264 266 267 268 270 272 273 273 274 274 274 275 275 276 278 279 280 281 282 283 284 286 287 288 289 291
236 238 239 239 241 244 246 249 253 258 260 261 261 262 266 268 267 266 266 266 268 269 271 272 273 273 274 274 274 275 275 276 277 278 280 281 283 284 285 286 288 289 290 291
235 238 237 238 238 240 243 247 252 257 259 262 263 264 265 268 269 268 268 269 270 271 272 273 272 272 273 274 274 274 275 276 277 279 280 282 283 284 286 287 289 290 291 292
232 236 235 235 236 238 242 246 250 254 259 263 265 266 268 267 269 271 271 272 272 272 273 273 272 273 274 274 275 276 276 277 278 279 280 282 283 285 286 287 288 290 292 293
229 232 234 234 235 239 242 245 249 254 258 264 267 268 268 270 271 272 272 272 272 272 273 273 273 274 275 276 276 276 276 277 278 279 281 282 284 285 286 287 289 291 293 294
227 232 235 235 236 238 241 245 250 255 260 262 266 268 270 272 272 271 271 272 273 273 274 274 274 274 275 276 276 276 277 278 280 281 282 283 284 285 286 288 291 293 294 295
224 228 233 235 236 238 242 247 251 254 257 260 263 269 271 270 270 270 271 272 273 274 274 275 275 276 276 276 277 278 279 280 282 283 284 284 285 286 288 290 292 293 295 296
223 228 233 237 240 242 244 246 248 251 255 259 263 268 270 271 271 271 272 273 273 274 275 276 276 276 276 278 279 279 281 282 283 284 284 285 286 288 289 291 293 295 296 297
223 228 232 235 238 240 243 245 247 251 255 260 263 264 266 268 269 271 272 273 273 274 275 276 276 277 277 279 280 281 282 283 285 286 286 287 288 289 291 293 294 296 297 297
224 228 232 235 237 240 242 245 248 252 255 260 262 265 265 265 268 271 273 274 274 275 276 276 277 277 278 280 281 282 283 285 286 287 288 289 290 291 292 293 295 296 297 297
226 229 232 234 237 241 243 246 250 253 256 259 263 264 263 265 268 271 273 274 275 275 276 276 277 278 279 280 281 282 284 285 287 288 288 290 291 292 293 294 295 296 297 298
223 226 230 233 236 241 244 244 248 252 255 259 262 262 264 266 268 271 274 276 276 277 278 278 279 279 280 281 282 283 285 287 288 289 289 290 291 292 293 294 295 296 297 298
223 226 230 233 237 241 243 246 249 253 256 259 261 262 264 267 270 272 274 277 278 278 279 280 280 281 282 282 284 285 287 288 288 289 290 291 292 293 294 295 296 297 298 299
224 227 231 234 237 241 243 245 249 254 256 258 260 262 264 268 270 273 275 278 279 279 280 281 281 282 283 284 285 287 288 289 289 290 291 292 292 293 295 296 297 298 299 300
227 229 232 236 239 242 245 246 249 253 256 255 258 262 265 268 272 274 276 279 280 281 282 282 283 284 284 286 287 288 289 290 291 292 292 293 293 294 296 297 297 298 299 301
229 232 234 237 240 243 245 247 249 252 254 256 259 262 265 268 271 274 277 279 281 282 283 284 285 286 287 287 288 289 290 292 292 293 293 294 295 296 297 298 299 300 301 302
228 231 235 238 242 245 245 248 250 252 254 257 260 263 265 269 272 275 277 279 281 283 283 285 286 287 288 289 290 291 292 293 293 294 294 295 296 297 298 299 300 301 303 304
229 231 233 236 238 242 245 249 251 253 255 258 261 264 266 269 272 275 278 280 282 283 284 286 287 287 289 290 291 292 293 293 294 295 296 297 298 299 300 301 302 303 304 305
229 231 233 237 238 242 245 248 250 252 255 259 262 264 267 269 273 276 279 281 282 283 285 287 288 289 290 291 292 293 294 295 296 297 298 299 300 301 302 303 304 305 306 307
230 232 235 238 240 243 245 246 249 251 255 259 263 266 268 270 272 276 280 282 283 285 287 288 289 290 291 293 294 295 296 297 298 299 300 301 301 302 303 304 305 306 307 308
Height
5792 5797 5801 5805 5806 5809 5811 5814 5816 5817 5817 5820 5822 5825 5826 5825 5826 5827 5827 5827 5827 5827 5826 5826 5825 5824 5823 5822 5820 5819 5817 5816 5814 5813 5811 5809 5808 5806 5804 5802 5800 5798 5796 5793
5785 5789 5794 5795 5798 5800 5803 5806 5809 5810 5810 5811 5814 5817 5819 5818 5818 5819 5819 5819 5819 5819 5819 5819 5818 5817 5816 5814 5813 5811 5810 5808 5807 5805 5804 5802 5800 5799 5797 5795 5793 5791 5788 5786
5776 5783 5785 5787 5790 5793 5796 5799 5801 5802 5802 5803 5806 5810 5812 5811 5810 5810 5811 5812 5812 5812 5811 5811 5810 5809 5808 5807 5805 5804 5802 5801 5800 5798 5796 5795 5793 5791 5789 5787 5785 5783 5781 5778
5767 5772 5776 5779 5783 5785 5788 5791 5792 5794 5795 5796 5798 5800 5806 5804 5803 5802 5803 5803 5803 5803 5803 5802 5802 5801 5800 5799 5798 5796 5795 5793 5792 5790 5789 5787 5785 5784 5782 5780 5778 5775 5772 5770
5760 5765 5769 5772 5776 5778 5780 5783 5784 5786 5786 5788 5790 5790 5797 5797 5796 5795 5795 5795 5795 5795 5794 5794 5793 5793 5792 5791 5789 5788 5787 5785 5784 5783 5781 5779 5778 5776 5774 5772 5769 5767 5764 5761
5751 5756 5760 5764 5768 5770 5773 5775 5776 5777 5778 5781 5783 5783 5786 5788 5788 5787 5787 5787 5786 5786 5786 5786 5785 5784 5783 5782 5781 5780 5779 5777 5776 5775 5773 5771 5770 5768 5766 5763 5761 5758 5755 5752
5742 5747 5752 5757 5760 5763 5765 5768 5769 5770 5771 5773 5775 5775 5778 5779 5779 5779 5779 5778 5778 5778 5777 5777 5776 5775 5775 5774 5773 5772 5770 5769 5768 5767 5765 5763 5761 5759 5757 5755 5752 5749 5746 5743
5734 5739 5745 5749 5753 5755 5758 5760 5762 5763 5763 5764 5765 5767 5771 5770 5770 5769 5770 5769 5769 5769 5769 5768 5767 5767 5766 5765 5764 5764 5762 5761 5760 5758 5757 5755 5753 5751 5749 5746 5743 5740 5737 5733
5727 5732 5737 5741 5745 5747 5749 5751 5754 5754 5754 5755 5756 5760 5763 5762 5761 5761 5761 5761 5761 5760 5760 5760 5759 5758 5758 5757 5756 5755 5754 5753 5752 5750 5749 5747 5745 5743 5740 5737 5734 5730 5727 5723
5719 5724 5728 5732 5735 5738 5741 5744 5745 5745 5746 5747 5749 5751 5754 5754 5753 5753 5752 5752 5752 5752 5752 5751 5751 5750 5749 5749 5748 5747 5746 5745 5743 5742 5740 5738 5736 5734 5731 5728 5724 5721 5717 5713
5711 5715 5719 5723 5726 5731 5733 5736 5737 5738 5739 5740 5741 5745 5746 5745 5745 5745 5744 5744 5744 5744 5743 5743 5743 5742 5741 5740 5740 5739 5738 5736 5735 5734 5732 5730 5727 5725 5722 5718 5715 5711 5707 5703
5701 5706 5709 5714 5719 5721 5724 5727 5729 5731 5732 5732 5733 5738 5737 5737 5736 5736 5736 5736 5736 5736 5736 5735 5734 5734 5733 5732 5731 5730 5729 5728 5727 5725 5723 5721 5718 5715 5712 5708 5705 5701 5696 5692
5692 5696 5699 5703 5710 5713 5715 5719 5722 5723 5723 5723 5725 5731 5729 5729 5728 5728 5728 5728 5728 5728 5727 5727 5726 5726 5725 5724 5723 5722 5721 5720 5718 5716 5714 5712 5709 5705 5702 5698 5694 5690 5686 5681
5683 5687 5692 5698 5702 5706 5709 5711 5713 5713 5714 5716 5719 5722 5721 5720 5720 5720 5720 5720 5720 5720 5719 5719 5718 5718 5717 5716 5715 5714 5713 5711 5709 5707 5705 5702 5699 5695 5692 5688 5684 5679 5675 5670
5674 5679 5684 5689 5693 5697 5699 5702 5704 5705 5707 5709 5712 5712 5714 5712 5711 5712 5712 5712 5712 5712 5711 5711 5711 5710 5709 5708 5707 5705 5704 5702 5700 5698 5695 5692 5689 5685 5681 5677 5673 5668 5664 5659
5667 5673 5677 5681 5684 5687 5690 5693 5695 5697 5700 5701 5702 5705 5705 5704 5704 5704 5704 5704 5704 5704 5704 5703 5703 5702 5701 5700 5698 5697 5695 5693 5690 5688 5685 5682 5678 5675 5671 5666 5662 5657 5652 5647
5660 5665 5670 5674 5676 5678 5681 5687 5689 5690 5692 5693 5694 5698 5696 5696 5696 5696 5697 5697 5696 5696 5696 5695 5694 5693 5692 5691 5689 5688 5685 5683 5681 5678 5675 5671 5668 5664 5660 5655 5651 5646 5641 5636
5651 5656 5660 5664 5668 5669 5678 5680 5681 5683 5685 5686 5687 5688 5688 5689 5689 5689 5689 5689 5689 5688 5688 5687 5686 5685 5683 5682 5680 5678 5676 5673 5671 5668 5664 5661 5657 5653 5649 5644 5639 5634 5629 5624
5642 5647 5652 5656 5658 5663 5669 5673 5674 5675 5677 5678 5679 5680 5680 5680 5681 5682 5682 5681 5681 5680 5679 5678 5677 5676 5674 5673 5671 5669 5666 5663 5660 5657 5654 5650 5646 5642 5638 5633 5628 5623 5618 5612
5634 5639 5644 5648 5651 5655 5664 5666 5666 5668 5670 5672 5671 5672 5673 5673 5674 5675 5674 5673 5673 5672 5671 5670 5668 5667 5665 5663 5661 5659 5656 5653 5650 5647 5643 5639 5635 5631 5626 5622 5616 5611 5606 5600
5625 5630 5635 5640 5644 5648 5654 5657 5658 5661 5664 5664 5664 5665 5665 5666 5667 5667 5666 5665 5664 5663 5662 5661 5659 5658 5656 5654 5652 5649 5646 5643 5640 5636 5632 5628 5624 5620 5615 5610 5605 5599 5594 5588
5619 5624 5628 5632 5636 5644 5647 5649 5651 5654 5654 5655 5656 5657 5658 5659 5659 5658 5658 5657 5656 5655 5654 5652 5651 5649 5647 5645 5642 5639 5636 5633 5629 5625 5622 5617 5613 5608 5603 5598 5593 5587 5581 5574
5611 5618 5622 5627 5633 5636 5638 5641 5643 5645 5646 5647 5649 5650 5650 5651 5651 5651 5650 5649 5648 5647 5645 5644 5642 5640 5638 5635 5632 5629 5626 5622 5618 5615 5611 5606 5602 5597 5592 5586 5580 5574 5567 5560
5605 5609 5613 5618 5623 5626 5629 5632 5634 5636 5638 5639 5641 5642 5643 5643 5643 5642 5642 5641 5640 5638 5637 5635 5633 5630 5628 5625 5622 5619 5615 5612 5608 5604 5599 5595 5590 5585 5580 5574 5567 5560 5553 5545
5597 5601 5605 5609 5614 5618 5620 5624 5626 5628 5630 5632 5633 5634 5634 5635 5635 5634 5633 5632 5631 5629 5627 5625 5623 5621 5618 5615 5612 5608 5605 5601 5597 5593 5588 5584 5578 5573 5567 5561 5553 5546 5538 5528
5590 5594 5599 5603 5608 5610 5613 5615 5617 5619 5622 5623 5624 5625 5626 5626 5626 5625 5624 5623 5622 5620 5618 5616 5614 5611 5608 5605 5602 5598 5594 5590 5586 5582 5577 5572 5566 5560 5554 5547 5540 5531 5522 5513